SCP
0 0 0 0 0 0 0 0 0 0 0 0 0 0 0 0 0 0 0 0 0 0 0 0 0 0 0 0 0 0 0 0 0 0 0 0 0 0
0 0 0 0 0 0 0 0 0 0 0 0 0 0 0 0 0 0 0 0 0 0 0 0 0 0 0 0 0 0 0 0 0 0 0 0 0 0
0 0 0 0 0 0 0 0 0 0 0 0 0 0 0 0 0 0 0 0 0 0 0 0 0 0 0 0 0 0 0 0 0 0 0 0 0 0
0 0 0 0 0 0 0 0 0 0 0 0 0 0 0 0 0 0 0 0 0 0 0 0 0 0 0 0 0 0 0 0 0 0 0 0 0 0
0 0 0 0 0 0 0 0 0 0 0 0 0 0 0 0 0 0 0 0 0 0 0 0 0 0 0 0 0 0 0 0 0 0 0 0 0 0
0 0 0 0 0 0 0 0 0 0 0 0 0 0 0 0 0 0 0 0 0 0 0 0 0 0 0 0 0 0 0 0 0 0 0 0 0 0
0 0 0 0 0 0 0 0 0 0 0 0 0 0 0 0 0 0 0 0 0 0 0 0 0 0 0 0 0 0 0 0 0 0 0 0 0 0
0 0 0 0 0 0 0 0 0 0 0 0 0 0 0 0 0 0 0 0 0 0 0 0 0 0 0 0 0 0 0 0 0 0 0 0 0 0
0 0 0 0 0 0 0 0 0 0 0 0 0 0 0 0 0 0 0 0 0 0 0 0 0 0 0 0 0 0 0 0 0 0 0 0 0 0
0 0 0 0 0 0 0 0 0 0 0 0 0 0 0 0 0 0 0 0 0 0 0 0 0 0 0 0 0 0 0 0 0 0 0 0 0 0
0 0 0 0 0 0 0 0 0 0 0 0 0 0 0 0 0 0 0 0 0 0 0 0 0 0 0 0 0 0 0 0 0 0 0 0 0 0
0 0 0 0 0 0 0 0 0 0 0 0 0 0 0 0 0 0 0 0 0 0 0 0 0 0 0 0 0 0 0 0 0 0 0 0 0 0
0 0 0 0 0 0 0 0 0 0 0 0 0 0 0 0 0 0 0 0 0 0 0 0 0 0 0 0 0 0 0 0 0 0 0 0 0 0
0 0 0 0 0 0 0 0 0 0 0 0 0 0 0 0 0 0 0 0 0 0 0 0 0 0 0 0 0 0 0 0 0 0 0 0 0 0
0 0 0 0 0 0 0 0 0 0 0 0 0 0 0 0 0 0 0 0 0 0 0 0 0 0 0 0 0 0 0 0 0 0 0 0 0 0
0 0 0 0 0 0 0 0 0 0 0 0 0 0 0 0 0 0 0 0 0 0 0 0 0 0 0 0 0 0 0 0 0 0 0 0 0 0
0 0 0 0 0 0 0 0 0 0 0 0 0 0 0 0 0 0 0 0 0 0 0 0 0 0 0 0 0 0 0 0 0 0 0 0 0 0
0 0 0 0 0 0 0 0 0 0 0 0 0 0 0 0 0 0 0 0 0 0 0 0 0 0 0 0 0 0 0 0 0 0 0 0 0 0
0 0 0 0 0 0 0 0 0 0 0 0 0 0 0 0 0 0 0 0 0 0 0 0 0 0 0 0 0 0 0 0 0 0 0 0 0 0
0 0 0 0 0 0 0 0 0 0 0 0 0 0 0 0 0 0 0 0 0 0 0 0 0 0 0 0 0 0 0 0 0 0 0 0 0 0
0 0 0 0 0 0 0 0 0 0 0 0 0 0 0 0 0 0 0 0 0 0 0 0 0 0 0 0 0 0 0 0 0 0 0 0 0 0
0 0 0 0 0 0 0 0 0 0 0 0 0 0 0 0 0 0 0 0 0 0 0 0 0 0 0 0 0 0 0 0 0 0 0 0 0 0
0 0 0 0 0 0 0 0 0 0 0 0 0 0 0 0 0 0 0 0 0 0 0 0 0 0 0 0 0 0 0 0 0 0 0 0 0 0
Wind_Speed
6 8 8 5 5 5 5 5 4 3 6 5 4 5 5 5 7 5 4 8 9 7 6 4 3 2 1 1 1 2 4 5 4 3 4 5 6 8
5 7 8 5 4 4 5 4 4 4 5 6 5 2 4 5 7 6 5 9 11 11 9 7 5 5 4 3 3 4 5 6 6 4 3 3 4 5
4 7 9 8 6 5 5 3 3 3 3 2 1 2 3 5 4 4 4 4 5 11 11 9 8 7 5 4 4 5 5 6 6 5 3 1 3 4
5 5 6 7 7 6 6 5 4 3 2 2 2 2 2 4 4 3 3 4 4 9 13 12 11 10 8 6 6 6 5 5 4 3 2 2 2 5
4 5 5 5 4 5 6 5 4 2 1 1 2 1 0 0 2 1 2 3 4 8 11 11 12 11 9 8 7 6 6 4 3 1 3 3 3 3
4 4 4 5 6 7 6 6 5 4 2 1 1 2 2 2 2 2 3 4 4 4 7 8 9 11 11 11 9 7 6 6 5 5 4 3 1 1
2 1 2 5 8 7 5 5 5 4 4 2 2 2 3 3 4 4 5 2 4 4 3 4 4 4 6 9 9 9 8 8 8 7 6 4 3 1
4 3 3 5 8 11 11 10 9 7 4 3 2 1 2 2 3 5 4 2 3 4 5 4 5 5 5 5 9 11 10 9 9 9 8 6 5 3
5 4 4 5 6 6 10 13 12 12 9 5 4 6 4 4 4 5 5 6 6 3 4 2 3 5 5 6 13 14 13 12 11 10 10 8 7 5
5 5 5 5 6 8 6 7 8 9 10 8 7 8 7 6 6 5 8 7 3 2 5 3 4 4 4 6 14 16 15 14 13 13 12 9 7 6
4 5 5 5 9 10 8 6 5 6 8 11 12 13 12 11 9 5 5 5 5 4 5 3 3 2 2 3 7 13 15 15 14 14 13 11 9 7
4 4 5 6 10 10 9 7 6 5 5 6 9 9 4 3 5 6 4 4 2 2 4 5 3 2 2 2 2 4 6 10 12 12 11 10 9 4
4 4 3 6 6 6 8 6 5 3 3 3 3 3 2 0 0 1 3 3 3 3 3 4 3 3 2 1 1 2 3 4 4 5 7 9 9 8
4 4 5 6 6 3 4 4 7 5 4 3 2 2 1 1 0 1 1 1 0 0 1 1 1 2 2 2 2 1 2 2 3 3 4 5 6 9
3 6 8 5 4 4 5 7 6 4 4 3 2 2 1 2 2 2 2 1 1 1 2 2 2 2 2 3 2 1 1 2 4 3 3 4 4 4
3 4 2 4 6 5 4 3 3 3 3 3 2 2 2 2 1 1 1 1 1 2 2 3 4 3 2 3 3 2 3 2 1 3 3 3 3 4
2 1 2 3 4 3 3 3 2 3 2 2 1 1 1 2 2 3 2 2 2 2 2 1 2 3 4 3 4 5 4 3 4 4 4 3 5 6
1 2 3 3 3 3 4 3 2 2 2 2 2 2 2 2 2 2 3 3 3 3 2 1 1 1 2 4 7 5 4 4 4 5 4 3 5 5
1 3 3 3 3 2 3 3 2 2 2 1 1 1 1 2 2 2 2 2 2 3 3 2 1 2 3 4 4 7 6 4 3 4 5 6 6 4
4 5 4 3 3 2 2 2 2 2 2 1 1 1 1 1 1 1 2 2 2 3 3 2 2 3 5 4 3 3 8 6 4 4 5 5 5 4
3 4 3 3 3 3 4 3 3 3 3 2 1 1 1 1 1 2 3 4 3 3 3 2 3 3 3 2 3 3 4 9 9 5 3 4 3 3
4 4 4 4 4 4 4 4 4 4 3 2 2 2 2 2 3 3 3 3 3 3 3 2 2 1 1 3 5 5 3 2 3 5 4 3 3 4
3 3 4 4 4 4 4 3 3 3 2 2 2 2 2 3 3 3 3 3 3 3 3 2 1 1 1 2 4 4 5 4 2 1 1 2 2 2
Wind_Direction
205 211 216 212 201 193 190 176 170 222 235 221 210 207 184 175 188 175 180 191 189 190 184 173 153 142 187 219 317 329 315 313 328 354 1 355 356 4
206 213 222 220 205 193 201 190 161 205 244 211 208 207 178 170 191 176 191 199 198 196 195 193 191 192 201 212 257 290 303 301 300 312 324 332 357 2
223 218 222 215 210 196 190 168 148 174 223 249 202 192 153 164 174 176 200 200 202 204 204 207 211 215 218 225 251 264 275 286 284 276 264 299 352 6
254 242 240 219 209 187 183 168 145 162 164 221 241 199 189 182 154 175 196 198 198 212 211 213 216 221 226 231 250 260 271 278 273 243 174 63 24 0
261 242 234 210 176 158 159 152 142 144 142 165 230 185 236 150 118 155 208 214 212 218 216 216 217 219 224 229 240 253 265 253 218 150 115 97 48 21
274 248 218 197 177 164 156 157 154 147 137 115 222 221 181 161 137 172 224 229 233 225 221 217 217 219 224 230 237 241 247 231 195 171 152 139 121 22
271 264 187 180 174 174 170 164 164 155 145 144 199 217 190 168 192 194 211 213 242 213 210 222 211 218 223 230 232 236 233 224 199 181 177 171 170 156
207 232 231 212 198 201 199 182 171 164 162 154 180 243 250 202 179 193 180 159 251 208 191 229 200 219 211 215 225 226 232 225 209 198 192 184 170 150
194 199 222 230 217 213 215 207 200 196 187 169 190 224 225 215 199 194 189 192 209 187 166 241 205 234 215 212 220 224 224 223 212 202 199 193 184 187
219 211 214 229 219 205 204 214 213 208 203 200 212 225 227 222 222 214 207 210 235 174 155 203 207 224 211 218 217 216 213 214 210 201 198 198 197 205
243 238 228 239 242 210 188 203 216 218 206 213 227 231 236 243 227 208 192 193 227 223 189 200 203 220 238 228 219 218 210 203 200 200 198 196 199 206
275 277 263 259 246 220 191 190 208 218 200 212 228 228 229 256 212 198 184 194 205 246 209 189 188 178 260 264 238 207 202 196 194 197 202 200 196 182
255 268 274 298 277 224 186 177 187 178 155 151 125 128 144 83 54 204 200 206 212 227 205 181 193 188 228 276 290 209 170 171 179 198 209 211 201 183
242 249 253 268 261 184 163 178 165 134 110 109 116 131 142 153 200 100 103 91 33 44 111 160 197 188 200 229 253 232 204 178 174 187 189 208 220 208
260 271 266 244 180 163 159 145 131 123 131 139 138 138 160 161 139 100 63 38 337 247 208 195 187 180 194 202 213 196 244 238 204 198 186 199 206 198
291 302 299 144 136 142 138 118 121 145 153 148 141 156 171 157 156 176 174 185 262 289 262 206 199 198 208 212 203 202 186 223 196 209 199 202 206 204
272 212 148 142 146 149 134 127 130 125 120 116 139 165 194 196 198 201 204 196 212 260 285 250 212 228 236 213 210 208 191 218 215 196 193 224 227 218
277 178 160 151 145 160 145 119 111 128 147 155 177 195 221 229 216 205 215 211 225 236 249 284 343 345 305 254 229 226 212 216 200 195 192 225 255 224
43 103 114 121 132 152 142 135 147 162 158 157 189 217 243 263 245 232 226 234 262 260 245 224 223 224 252 262 238 219 221 206 178 197 202 209 232 214
31 59 60 68 101 116 112 91 76 82 94 95 75 21 351 323 309 299 289 267 264 263 259 232 227 230 246 262 264 246 215 221 203 214 210 208 225 212
43 58 64 70 77 81 77 73 68 65 63 57 31 1 327 302 287 278 278 280 271 267 278 265 254 261 263 273 268 268 240 224 227 227 204 192 203 198
48 58 58 58 56 59 61 67 66 64 63 54 24 355 330 304 286 279 265 264 264 263 268 271 302 326 270 244 267 275 277 243 229 247 221 198 190 210
35 49 51 51 45 55 60 67 72 72 58 22 348 329 322 311 302 295 290 286 280 277 277 272 273 266 256 268 283 288 289 291 274 256 214 130 57 37